STARLINK-31731, 59498

Orbit data source: Space-Track

STARLINK-31731, 59498 is a payload satellite owned by SpaceX/Seattle (US) in LEO that was launched on Sat, 13 Apr 2024 UTC via an FALCON 9 launch vehicle from the Air Force Eastern Test Range (AFETR). Payload-class satellites include a variety of spacecraft equipped with specific instruments for various scientific and technological missions. These include communications satellites like Starlink; space stations such as the ISS; scientific satellites like the Hubble; Earth observation satellites from companies like Planet Labs, Umbra, and HawkEye 360; GPS; miniature CubeSats for education and research; and military/defense satellites.

Loading next visibility...
Identifier
59498, 2024-071Q
Orbit
LEO
Country
Flag of USUS
Related business
Manufacturer
SpaceX/Seattle
Mission
Operational Commercial Communications
Bus & Motor
STARLINK V2M, Unknown motor
Mass
730 kg wet, ~700 kg dry
Launch date (UTC)
2024-04-13 (2 years ago)
Launch vehicle
FALCON 9
Launch site
Air Force Eastern Test Range (AFETR)
Object type
Payload
Rocket body
Debris
Shape & HBR
Box + 2 Pan, 17.7 m
Radar Cross Section
33.884 m², Large (>1 m²)

Expand to show TLE details & history
Last TLE update: 2 days ago

TLE from 2 days ago
0 STARLINK-31731
1 59498U 24071Q   26171.24310897  .00000805  00000-0  38758-4 0  9998
2 59498  43.0030 120.2481 0001126 279.6889  80.3835 15.27578755123896
Epoch: 2026-06-20T05:50Z
TLE epoch observation values (Epoch: 2026-06-20T05:50:04.615Z)
Latitude
-0.00003°
Longitude
124.26831°
Altitude
482.7 km
Speed
7.626 km/s
True Right ascension
08h 00m 59s
True Declination
0° 00' 00"
Sunlit
Object was in daylight at epoch
Visualization orbit readout
Latitude
Unknown
Longitude
Unknown
Altitude
Unknown
Speed
Unknown
Apparent Right ascension
Unknown
Apparent Declination
Unknown
Sunlit
N/A
Visualization observer readout
Local Sidereal Time
00:26:57
Azimuth
Unknown
Elevation
Unknown
Doppler factor
Unknown
Orbital elements
Apogee altitude
485.77 km
Perigee altitude
484.225 km
Semi-major axis
6,863.134 km
Eccentricity
0.00011
Inclination
43.003°
RAAN
120.2481°
Arg. of periapsis
279.6889°
True anomaly
80.39622°
Mean anomaly
80.3835°
Eccentric anomaly
80.38986°
Mean motion
3.81733 °/min
Orbital period
94.31 mins
BSTAR
0.000038758
Loading maneuver chart data...
Computing Atmospheric mass density...
Loading historical data...
Loading historical data...
Loading historical data...
Loading historical data...
Loading historical data...
Loading historical data...
Loading historical data...

Documentation

Showing up to 5 results
|